Leesburg, VA

3:37 PM EST on December 04, 2016 (GMT -0500)
Leesburg Executive

Weather History for KJYO - August, 2014

Change the Weather History Date:

Sunday, August 24, 2014

  Actual Average (KIAD) Record (KIAD)
Temperature  
Mean Temperature 70 °F 75 °F  
Max Temperature 78 °F 86 °F 97 °F (1998)
Min Temperature 62 °F 63 °F 46 °F (1971)
Degree Days  
Heating Degree Days 0 0  
Month to date heating degree days 0  
Since 1 June heating degree days 15  
Since 1 July heating degree days 0  
Cooling Degree Days 5 10  
Month to date cooling degree days 259  
Year to date cooling degree days 951  
Since 1 June cooling degree days 859  
Growing Degree Days 20 (Base 50)    
Moisture  
Dew Point 64 °F    
Average Humidity 84    
Maximum Humidity 100    
Minimum Humidity 54    
Precipitation  
Precipitation 0.00 in 0.12 in 3.88 in (1967)
Month to date precipitation 2.80  
Year to date precipitation 27.27  
Snow  
Snow 0.00 in 0.00 in - ()
Month to date snowfall 0.0  
Since 1 July snowfall 0.0  
Snow Depth -    
Sea Level Pressure  
Sea Level Pressure 30.14 in    
Wind  
Wind Speed 3 mph (NE)    
Max Wind Speed 7 mph    
Max Gust Speed -    
Visibility 10 miles    
Events Rain    
T = Trace of Precipitation, MM = Missing Value Source: NWS Daily Summary

Daily Weather History Graph

Daily Weather History Graph

Search for Another Location

Airport or City:

Trip Planner

Search our weather history database for the weather conditions in past years. The results will help you decide how hot, cold, wet, or windy it might be!

Date:

Astronomy

Aug. 24, 2014 Rise Set
Actual Time 6:31 AM EDT 7:52 PM EDT
Civil Twilight 6:03 AM EDT 8:20 PM EDT
Nautical Twilight 5:30 AM EDT 8:53 PM EDT
Astronomical Twilight 4:55 AM EDT 9:28 PM EDT
Moon 5:40 AM EDT (8/24) 7:10 PM EDT (8/24)
Length of Visible Light 14h 16m
Length of Day
13h 21m
Waning Crescent, 1% of the Moon is Illuminated
Aug 24
Waning Crescent
Aug 25
New
Sep 2
First Quarter
Sep 8
Full
Sep 15
Last Quarter

Hourly Weather History & Observations

Time (EDT) Temp. Dew Point Humidity Pressure Visibility Wind Dir Wind Speed Gust Speed Precip Events Conditions
12:15 AM 68.0 °F 68.0 °F 100% 30.12 in 10.0 mi SE 3.5 mph - N/A   Overcast
12:35 AM 68.0 °F 68.0 °F 100% 30.12 in 10.0 mi Calm Calm - N/A   Overcast
12:55 AM 68.0 °F 68.0 °F 100% 30.12 in 10.0 mi ENE 3.5 mph - N/A   Overcast
1:15 AM 68.0 °F 68.0 °F 100% 30.12 in 10.0 mi ENE 4.6 mph - N/A   Overcast
1:35 AM 68.0 °F 68.0 °F 100% 30.12 in 10.0 mi ENE 3.5 mph - N/A   Overcast
1:55 AM 68.0 °F 68.0 °F 100% 30.13 in 7.0 mi NE 4.6 mph - N/A   Drizzle
2:15 AM 68.0 °F 68.0 °F 100% 30.13 in 7.0 mi NE 3.5 mph - N/A   Drizzle
2:35 AM 66.2 °F 66.2 °F 100% 30.13 in 7.0 mi NE 3.5 mph - N/A Rain Rain
3:15 AM 66.2 °F 66.2 °F 100% 30.13 in 10.0 mi NE 4.6 mph - N/A   Overcast
3:35 AM 66.2 °F 66.2 °F 100% 30.13 in 10.0 mi NE 4.6 mph - N/A   Overcast
3:55 AM 66.2 °F 66.2 °F 100% 30.12 in 10.0 mi NE 4.6 mph - N/A   Overcast
4:15 AM 66.2 °F 66.2 °F 100% 30.12 in 10.0 mi NE 4.6 mph - N/A   Overcast
4:35 AM 64.4 °F 64.4 °F 100% 30.11 in 10.0 mi NNE 5.8 mph - N/A   Overcast
4:55 AM 64.4 °F 64.4 °F 100% 30.11 in 10.0 mi NE 3.5 mph - N/A   Overcast
5:15 AM 64.4 °F 64.4 °F 100% 30.11 in 10.0 mi NE 3.5 mph - N/A   Overcast
5:35 AM 64.4 °F 64.4 °F 100% 30.12 in 10.0 mi North 3.5 mph - N/A   Overcast
5:55 AM 64.4 °F 64.4 °F 100% 30.12 in 10.0 mi North 4.6 mph - N/A   Overcast
6:15 AM 64.4 °F 64.4 °F 100% 30.13 in 10.0 mi North 3.5 mph - N/A   Overcast
6:35 AM 64.4 °F 64.4 °F 100% 30.14 in 10.0 mi North 5.8 mph - N/A   Overcast
6:55 AM 64.4 °F 64.4 °F 100% 30.14 in 10.0 mi NNE 4.6 mph - N/A   Overcast
7:15 AM 64.4 °F 64.4 °F 100% 30.14 in 10.0 mi NE 4.6 mph - N/A   Overcast
7:35 AM 64.4 °F 64.4 °F 100% 30.15 in 10.0 mi NNE 4.6 mph - N/A   Overcast
7:55 AM 64.4 °F 64.4 °F 100% 30.15 in 10.0 mi NNE 3.5 mph - N/A   Overcast
8:15 AM 66.2 °F 66.2 °F 100% 30.16 in 10.0 mi NNE 4.6 mph - N/A   Overcast
8:35 AM 66.2 °F 66.2 °F 100% 30.16 in 10.0 mi NNE 5.8 mph - N/A   Overcast
8:55 AM 66.2 °F 66.2 °F 100% 30.18 in 10.0 mi NNE 3.5 mph - N/A   Overcast
9:15 AM 68.0 °F 66.2 °F 94% 30.17 in 10.0 mi Calm Calm - N/A   Overcast
9:35 AM 69.8 °F 66.2 °F 88% 30.18 in 10.0 mi NE 4.6 mph - N/A   Overcast
9:55 AM 69.8 °F 66.2 °F 88% 30.18 in 10.0 mi NNE 4.6 mph - N/A   Overcast
10:15 AM 71.6 °F 66.2 °F 83% 30.18 in 10.0 mi Calm Calm - N/A   Overcast
10:35 AM 71.6 °F 64.4 °F 78% 30.18 in 10.0 mi Calm Calm - N/A   Overcast
10:55 AM 71.6 °F 64.4 °F 78% 30.18 in 10.0 mi Calm Calm - N/A   Overcast
11:15 AM 73.4 °F 62.6 °F 69% 30.18 in 10.0 mi East 6.9 mph - N/A   Overcast
11:35 AM 73.4 °F 62.6 °F 69% 30.18 in 10.0 mi NE 3.5 mph - N/A   Overcast
11:55 AM 73.4 °F 62.6 °F 69% 30.18 in 10.0 mi Calm Calm - N/A   Overcast
12:15 PM 75.2 °F 62.6 °F 65% 30.18 in 10.0 mi Calm Calm - N/A   Overcast
12:35 PM 73.4 °F 62.6 °F 69% 30.18 in 10.0 mi NNE 4.6 mph - N/A   Overcast
12:55 PM 75.2 °F 62.6 °F 65% 30.17 in 10.0 mi NE 3.5 mph - N/A   Overcast
1:15 PM 77.0 °F 62.6 °F 61% 30.17 in 10.0 mi East 3.5 mph - N/A   Overcast
1:35 PM 77.0 °F 62.6 °F 61% 30.16 in 10.0 mi ENE 6.9 mph - N/A   Overcast
1:55 PM 77.0 °F 62.6 °F 61% 30.16 in 10.0 mi ENE 5.8 mph - N/A   Overcast
2:15 PM 77.0 °F 60.8 °F 57% 30.16 in 10.0 mi ENE 3.5 mph - N/A   Overcast
2:35 PM 77.0 °F 62.6 °F 61% 30.16 in 10.0 mi Calm Calm - N/A   Overcast
2:55 PM 77.0 °F 62.6 °F 61% 30.15 in 10.0 mi East 3.5 mph - N/A   Overcast
3:15 PM 78.8 °F 62.6 °F 57% 30.14 in 10.0 mi East 3.5 mph - N/A   Overcast
3:35 PM 77.0 °F 62.6 °F 61% 30.14 in 10.0 mi NE 6.9 mph - N/A   Overcast
3:55 PM 78.8 °F 60.8 °F 54% 30.14 in 10.0 mi ENE 6.9 mph - N/A   Overcast
4:15 PM 77.0 °F 60.8 °F 57% 30.13 in 10.0 mi ENE 4.6 mph - N/A   Overcast
4:35 PM 78.8 °F 60.8 °F 54% 30.13 in 10.0 mi Calm Calm - N/A   Mostly Cloudy
4:55 PM 78.8 °F 62.6 °F 57% 30.13 in 10.0 mi East 4.6 mph - N/A   Overcast
5:15 PM 77.0 °F 62.6 °F 61% 30.13 in 10.0 mi Calm Calm - N/A   Overcast
5:35 PM 77.0 °F 62.6 °F 61% 30.13 in 10.0 mi East 5.8 mph - N/A   Overcast
5:55 PM 77.0 °F 62.6 °F 61% 30.13 in 10.0 mi SE 3.5 mph - N/A   Overcast
6:15 PM 77.0 °F 62.6 °F 61% 30.13 in 10.0 mi Calm Calm - N/A   Overcast
6:35 PM 77.0 °F 62.6 °F 61% 30.13 in 10.0 mi Calm Calm - N/A   Overcast
6:55 PM 75.2 °F 62.6 °F 65% 30.13 in 10.0 mi Calm Calm - N/A   Overcast
7:15 PM 75.2 °F 62.6 °F 65% 30.13 in 10.0 mi Calm Calm - N/A   Overcast
7:35 PM 73.4 °F 62.6 °F 69% 30.13 in 10.0 mi Calm Calm - N/A   Mostly Cloudy
7:55 PM 73.4 °F 62.6 °F 69% 30.13 in 10.0 mi Calm Calm - N/A   Scattered Clouds
8:15 PM 69.8 °F 64.4 °F 83% 30.13 in 10.0 mi Calm Calm - N/A   Clear
8:35 PM 68.0 °F 64.4 °F 88% 30.14 in 10.0 mi Calm Calm - N/A   Clear
8:55 PM 68.0 °F 64.4 °F 88% 30.14 in 10.0 mi NNW 3.5 mph - N/A   Clear
9:15 PM 66.2 °F 64.4 °F 94% 30.14 in 10.0 mi Calm Calm - N/A   Clear
9:35 PM 64.4 °F 64.4 °F 100% 30.15 in 10.0 mi Calm Calm - N/A   Clear
9:55 PM 64.4 °F 64.4 °F 100% 30.15 in 10.0 mi NNW 3.5 mph - N/A   Clear
10:15 PM 64.4 °F 64.4 °F 100% 30.15 in 10.0 mi Calm Calm - N/A   Clear
10:35 PM 64.4 °F 64.4 °F 100% 30.15 in 10.0 mi Calm Calm - N/A   Clear
10:55 PM 64.4 °F 64.4 °F 100% 30.15 in 10.0 mi Calm Calm - N/A   Clear
11:15 PM 62.6 °F 62.6 °F 100% 30.16 in 10.0 mi Calm Calm - N/A   Clear
11:35 PM 62.6 °F 62.6 °F 100% 30.16 in 10.0 mi NW 3.5 mph - N/A   Clear
11:55 PM 62.6 °F 62.6 °F 100% 30.16 in 10.0 mi NNW 3.5 mph - N/A   Clear